Location: Chervonnoye
(48.6000°N, 34.4000°E)
Time: 12:25:14
(UTC+00:00)

SEEDS - Visible Passes

Search period start: 06 December 2021 00:00
Search period end: 16 December 2021 00:00
Orbit: 582 x 603 km, 97.6° (Epoch: 05 December)

Date Brightness Start Highest point End Pass type
(mag) Time Alt. Az. Time Alt. Az. Time Alt. Az.
09 Dec ? 14:23:23 10° SW 14:26:25 19° W 14:29:28 10° NW visible
10 Dec ? 14:32:44 10° SW 14:35:20 16° W 14:37:56 10° NW visible
11 Dec ? 14:42:17 10° WSW 14:44:16 13° W 14:46:13 10° WNW visible
12 Dec ? 14:52:23 10° W 14:53:11 10° W 14:54:00 10° WNW visible
